QPF
0.00 0.00 0.00 0.00 0.00 0.00 0.00 0.00 0.00 0.00 0.00 0.00 0.00 0.00 0.00 0.00 0.00 0.00 0.00 0.00 0.00 0.00 0.00 0.00 0.00 0.04 0.11 0.17 0.19 0.24 0.12 0.03 0.01 0.01 0.00 0.00 0.00 0.00 0.00 0.00 0.00 0.00 0.00 0.00 0.00 0.02 0.01 0.00 0.00
0.00 0.00 0.00 0.00 0.00 0.00 0.00 0.00 0.00 0.00 0.00 0.00 0.00 0.00 0.00 0.00 0.00 0.00 0.00 0.00 0.00 0.00 0.00 0.00 0.00 0.00 0.06 0.15 0.16 0.23 0.19 0.08 0.02 0.02 0.01 0.00 0.00 0.00 0.00 0.00 0.00 0.00 0.00 0.00 0.00 0.00 0.00 0.00 0.00
0.00 0.00 0.00 0.00 0.00 0.00 0.00 0.00 0.00 0.00 0.00 0.00 0.00 0.00 0.00 0.00 0.00 0.00 0.00 0.00 0.00 0.00 0.00 0.00 0.00 0.00 0.03 0.10 0.17 0.19 0.20 0.07 0.03 0.02 0.01 0.00 0.00 0.00 0.00 0.00 0.00 0.00 0.00 0.00 0.00 0.00 0.00 0.00 0.00
0.00 0.00 0.00 0.00 0.00 0.00 0.00 0.00 0.00 0.00 0.00 0.00 0.00 0.00 0.00 0.00 0.00 0.00 0.00 0.00 0.00 0.00 0.00 0.00 0.00 0.00 0.02 0.10 0.18 0.19 0.21 0.16 0.06 0.03 0.02 0.01 0.00 0.00 0.00 0.00 0.00 0.00 0.00 0.00 0.00 0.00 0.00 0.00 0.00
0.00 0.00 0.00 0.00 0.00 0.00 0.00 0.00 0.00 0.00 0.00 0.00 0.00 0.00 0.00 0.00 0.00 0.00 0.00 0.00 0.00 0.00 0.00 0.00 0.00 0.00 0.01 0.11 0.17 0.16 0.19 0.24 0.13 0.08 0.03 0.03 0.02 0.01 0.01 0.00 0.00 0.00 0.00 0.00 0.00 0.00 0.00 0.00 0.00
0.00 0.00 0.00 0.00 0.00 0.00 0.00 0.00 0.00 0.00 0.00 0.00 0.00 0.00 0.00 0.00 0.00 0.00 0.00 0.00 0.00 0.00 0.00 0.00 0.00 0.00 0.01 0.07 0.11 0.13 0.15 0.25 0.25 0.14 0.06 0.02 0.03 0.02 0.01 0.00 0.00 0.00 0.00 0.00 0.00 0.00 0.00 0.00 0.00
0.00 0.00 0.00 0.00 0.00 0.00 0.00 0.00 0.00 0.00 0.00 0.00 0.00 0.00 0.00 0.00 0.00 0.00 0.00 0.00 0.00 0.00 0.00 0.00 0.00 0.00 0.01 0.03 0.06 0.10 0.11 0.17 0.27 0.24 0.13 0.03 0.02 0.03 0.01 0.00 0.00 0.00 0.00 0.00 0.00 0.00 0.00 0.00 0.00
0.00 0.00 0.00 0.00 0.00 0.00 0.00 0.00 0.00 0.00 0.00 0.00 0.00 0.00 0.00 0.00 0.00 0.00 0.00 0.00 0.00 0.00 0.00 0.00 0.00 0.00 0.00 0.01 0.01 0.03 0.07 0.10 0.19 0.23 0.16 0.07 0.04 0.03 0.00 0.00 0.00 0.00 0.00 0.00 0.00 0.00 0.00 0.00 0.00
0.00 0.00 0.00 0.00 0.00 0.00 0.00 0.00 0.00 0.00 0.00 0.00 0.00 0.00 0.00 0.00 0.00 0.00 0.00 0.00 0.00 0.00 0.00 0.00 0.00 0.00 0.00 0.00 0.00 0.00 0.03 0.03 0.12 0.18 0.16 0.09 0.04 0.03 0.01 0.00 0.00 0.00 0.00 0.00 0.00 0.00 0.00 0.00 0.00
0.00 0.00 0.00 0.00 0.00 0.00 0.00 0.00 0.00 0.00 0.00 0.00 0.00 0.00 0.00 0.00 0.00 0.00 0.00 0.00 0.00 0.00 0.00 0.00 0.00 0.00 0.00 0.00 0.00 0.00 0.01 0.02 0.07 0.14 0.17 0.09 0.04 0.02 0.01 0.00 0.00 0.00 0.00 0.00 0.00 0.01 0.00 0.00 0.00
0.00 0.00 0.00 0.00 0.00 0.00 0.00 0.00 0.00 0.00 0.00 0.00 0.00 0.00 0.00 0.00 0.00 0.00 0.00 0.00 0.00 0.00 0.00 0.00 0.00 0.00 0.00 0.00 0.00 0.00 0.00 0.02 0.04 0.11 0.14 0.11 0.08 0.08 0.03 0.00 0.00 0.00 0.00 0.00 0.00 0.00 0.00 0.00 0.00
0.00 0.00 0.00 0.00 0.00 0.00 0.00 0.00 0.00 0.00 0.00 0.00 0.00 0.00 0.00 0.00 0.00 0.00 0.00 0.00 0.00 0.00 0.00 0.00 0.00 0.00 0.00 0.00 0.00 0.00 0.00 0.01 0.01 0.05 0.09 0.11 0.13 0.09 0.04 0.00 0.00 0.00 0.00 0.00 0.00 0.00 0.00 0.00 0.00
0.00 0.00 0.00 0.00 0.00 0.00 0.00 0.00 0.00 0.00 0.00 0.00 0.00 0.00 0.00 0.00 0.00 0.00 0.00 0.00 0.00 0.00 0.00 0.00 0.00 0.00 0.00 0.00 0.00 0.00 0.00 0.00 0.01 0.01 0.03 0.09 0.10 0.07 0.04 0.02 0.00 0.00 0.00 0.00 0.00 0.00 0.00 0.00 0.00
0.00 0.00 0.00 0.00 0.00 0.00 0.00 0.00 0.00 0.00 0.00 0.00 0.00 0.00 0.00 0.00 0.00 0.00 0.00 0.00 0.00 0.00 0.00 0.00 0.00 0.00 0.00 0.00 0.00 0.00 0.00 0.00 0.00 0.00 0.01 0.03 0.06 0.06 0.05 0.02 0.00 0.00 0.00 0.00 0.00 0.00 0.00 0.00 0.00
0.00 0.00 0.00 0.00 0.00 0.00 0.00 0.00 0.00 0.00 0.00 0.00 0.00 0.00 0.00 0.00 0.00 0.00 0.00 0.00 0.00 0.00 0.00 0.00 0.00 0.00 0.00 0.00 0.00 0.00 0.00 0.00 0.00 0.00 0.00 0.00 0.01 0.04 0.06 0.03 0.00 0.00 0.00 0.00 0.00 0.00 0.00 0.00 0.00
0.00 0.00 0.00 0.00 0.00 0.00 0.00 0.00 0.00 0.00 0.00 0.00 0.00 0.00 0.00 0.00 0.00 0.00 0.00 0.00 0.00 0.00 0.00 0.00 0.00 0.00 0.00 0.00 0.00 0.00 0.00 0.01 0.01 0.00 0.00 0.00 0.00 0.01 0.02 0.03 0.01 0.00 0.00 0.00 0.00 0.00 0.00 0.00 0.00
0.00 0.00 0.00 0.00 0.00 0.00 0.00 0.00 0.00 0.00 0.00 0.00 0.00 0.00 0.00 0.00 0.00 0.00 0.00 0.00 0.00 0.00 0.00 0.00 0.00 0.00 0.00 0.00 0.00 0.00 0.00 0.01 0.02 0.00 0.00 0.01 0.00 0.00 0.00 0.01 0.00 0.00 0.00 0.00 0.00 0.00 0.00 0.00 0.00
0.00 0.00 0.00 0.00 0.00 0.00 0.00 0.00 0.00 0.00 0.00 0.00 0.00 0.00 0.00 0.00 0.00 0.00 0.00 0.00 0.00 0.00 0.00 0.00 0.00 0.00 0.00 0.00 0.00 0.00 0.00 0.00 0.01 0.00 0.01 0.01 0.01 0.00 0.00 0.00 0.00 0.00 0.01 0.01 0.00 0.00 0.00 0.00 0.00
0.00 0.00 0.00 0.00 0.00 0.00 0.00 0.00 0.00 0.00 0.00 0.00 0.00 0.00 0.00 0.00 0.00 0.00 0.00 0.00 0.00 0.00 0.00 0.00 0.00 0.00 0.00 0.00 0.00 0.00 0.00 0.00 0.00 0.00 0.01 0.01 0.00 0.00 0.00 0.00 0.00 0.00 0.01 0.01 0.00 0.00 0.00 0.00 0.00
0.00 0.00 0.00 0.00 0.00 0.00 0.00 0.00 0.00 0.00 0.00 0.00 0.00 0.00 0.00 0.00 0.00 0.00 0.00 0.00 0.00 0.00 0.00 0.00 0.00 0.00 0.00 0.00 0.00 0.00 0.00 0.00 0.00 0.00 0.00 0.01 0.01 0.01 0.00 0.00 0.00 0.00 0.01 0.01 0.01 0.00 0.00 0.00 0.00
0.00 0.00 0.00 0.00 0.00 0.00 0.00 0.00 0.00 0.00 0.00 0.00 0.00 0.00 0.00 0.00 0.00 0.00 0.00 0.00 0.00 0.00 0.00 0.00 0.00 0.00 0.00 0.00 0.00 0.00 0.00 0.00 0.00 0.00 0.00 0.00 0.00 0.00 0.00 0.00 0.00 0.00 0.01 0.01 0.00 0.00 0.00 0.00 0.00
0.00 0.00 0.00 0.00 0.00 0.00 0.00 0.00 0.00 0.00 0.00 0.00 0.00 0.00 0.00 0.00 0.00 0.00 0.00 0.00 0.00 0.00 0.00 0.00 0.00 0.00 0.00 0.00 0.00 0.00 0.00 0.00 0.00 0.00 0.00 0.00 0.00 0.00 0.00 0.00 0.00 0.00 0.01 0.01 0.00 0.00 0.00 0.00 0.00
0.00 0.00 0.00 0.00 0.00 0.00 0.00 0.00 0.00 0.00 0.00 0.00 0.00 0.00 0.00 0.00 0.00 0.00 0.00 0.00 0.00 0.00 0.00 0.00 0.00 0.00 0.00 0.00 0.00 0.00 0.00 0.00 0.00 0.00 0.00 0.00 0.00 0.00 0.00 0.00 0.00 0.00 0.00 0.02 0.01 0.00 0.00 0.00 0.00
0.00 0.00 0.00 0.00 0.00 0.00 0.00 0.00 0.00 0.00 0.00 0.00 0.00 0.00 0.00 0.00 0.00 0.00 0.00 0.00 0.00 0.00 0.00 0.00 0.00 0.00 0.00 0.00 0.00 0.00 0.00 0.00 0.00 0.00 0.00 0.00 0.00 0.00 0.00 0.00 0.00 0.00 0.00 0.00 0.01 0.01 0.01 0.00 0.00
0.00 0.00 0.00 0.00 0.00 0.00 0.00 0.00 0.00 0.00 0.00 0.00 0.00 0.00 0.00 0.00 0.00 0.00 0.00 0.00 0.00 0.00 0.00 0.00 0.00 0.00 0.00 0.00 0.00 0.00 0.00 0.00 0.00 0.00 0.00 0.00 0.00 0.00 0.00 0.00 0.00 0.00 0.00 0.00 0.00 0.01 0.01 0.00 0.00
0.00 0.00 0.00 0.00 0.00 0.00 0.00 0.00 0.00 0.00 0.00 0.00 0.00 0.00 0.00 0.00 0.00 0.00 0.00 0.00 0.00 0.00 0.00 0.00 0.00 0.00 0.00 0.00 0.00 0.00 0.00 0.00 0.00 0.00 0.00 0.00 0.00 0.00 0.00 0.00 0.00 0.01 0.00 0.00 0.00 0.00 0.01 0.00 0.00
0.00 0.00 0.00 0.00 0.00 0.00 0.00 0.00 0.00 0.00 0.00 0.00 0.00 0.00 0.00 0.00 0.00 0.00 0.00 0.00 0.00 0.00 0.00 0.00 0.00 0.00 0.00 0.00 0.00 0.00 0.00 0.00 0.00 0.00 0.00 0.00 0.00 0.00 0.00 0.00 0.00 0.00 0.00 0.00 0.00 0.00 0.00 0.00 0.00
0.00 0.00 0.00 0.00 0.00 0.00 0.00 0.00 0.00 0.00 0.00 0.00 0.00 0.00 0.00 0.00 0.00 0.00 0.00 0.00 0.00 0.00 0.00 0.00 0.00 0.00 0.00 0.00 0.00 0.00 0.00 0.00 0.00 0.00 0.00 0.00 0.00 0.00 0.00 0.00 0.00 0.01 0.00 0.00 0.00 0.00 0.00 0.00 0.00
0.00 0.00 0.00 0.00 0.00 0.00 0.00 0.00 0.00 0.00 0.00 0.00 0.00 0.00 0.00 0.00 0.00 0.00 0.00 0.00 0.00 0.00 0.00 0.00 0.00 0.00 0.00 0.00 0.00 0.00 0.00 0.00 0.00 0.00 0.00 0.00 0.00 0.00 0.00 0.00 0.00 0.00 0.00 0.00 0.00 0.00 0.00 0.00 0.00
0.00 0.00 0.00 0.00 0.00 0.00 0.00 0.00 0.00 0.00 0.00 0.00 0.00 0.00 0.00 0.00 0.00 0.00 0.00 0.00 0.00 0.00 0.00 0.00 0.00 0.00 0.00 0.00 0.00 0.00 0.00 0.00 0.00 0.00 0.00 0.00 0.00 0.00 0.00 0.00 0.00 0.00 0.00 0.00 0.00 0.00 0.00 0.00 0.00
MSLP
1018.57 1018.23 1017.66 1016.94 1016.75 1016.08 1016.24 1017.50 1018.16 1018.10 1018.44 1019.22 1019.01 1018.40 1017.84 1017.86 1018.75 1020.00 1021.74 1022.25 1021.65 1020.68 1020.26 1019.80 1019.11 1018.45 1017.53 1016.79 1016.24 1016.04 1016.11 1016.15 1016.32 1016.27 1016.16 1016.42 1016.62 1016.64 1016.90 1016.92 1017.07 1017.19 1017.34 1017.50 1017.62 1017.97 1018.16 1018.42 1018.67
1018.74 1018.32 1017.76 1017.29 1016.53 1015.96 1016.94 1018.27 1018.74 1019.58 1020.13 1019.81 1019.40 1019.12 1018.63 1018.94 1020.40 1021.21 1021.68 1022.33 1021.89 1020.98 1020.55 1020.19 1019.64 1019.11 1018.47 1017.43 1016.90 1016.19 1016.09 1016.16 1016.22 1016.40 1016.46 1016.44 1016.66 1016.79 1016.91 1017.14 1017.18 1017.40 1017.58 1017.84 1018.00 1018.25 1018.61 1019.08 1019.32
1018.99 1018.61 1017.71 1017.43 1017.02 1016.60 1017.73 1019.38 1020.06 1020.33 1020.74 1020.41 1019.99 1020.20 1020.34 1020.81 1021.63 1021.94 1022.51 1022.39 1021.91 1021.27 1020.88 1020.64 1020.10 1019.57 1019.20 1018.46 1017.56 1016.60 1016.19 1016.00 1016.12 1016.34 1016.55 1016.62 1016.67 1016.86 1016.98 1017.18 1017.38 1017.52 1017.86 1018.18 1018.44 1018.57 1018.86 1019.44 1019.73
1018.97 1018.82 1018.90 1017.86 1017.59 1019.01 1019.40 1020.93 1021.25 1021.06 1021.12 1021.39 1021.48 1020.72 1021.28 1021.96 1022.11 1022.63 1022.65 1022.37 1021.89 1021.41 1021.13 1020.97 1020.69 1020.13 1019.56 1019.07 1018.39 1017.51 1016.43 1016.06 1015.91 1016.19 1016.42 1016.67 1016.72 1016.83 1017.11 1017.25 1017.55 1017.73 1017.97 1018.36 1018.68 1018.97 1019.29 1019.62 1020.01
1019.74 1019.44 1018.67 1018.55 1019.12 1020.21 1021.45 1022.41 1022.47 1021.94 1022.08 1021.99 1022.34 1021.15 1021.51 1021.54 1022.35 1022.60 1022.57 1022.51 1022.15 1021.74 1021.37 1021.09 1021.08 1020.62 1020.06 1019.54 1019.26 1018.61 1017.69 1016.05 1015.75 1015.96 1016.21 1016.52 1016.78 1016.98 1017.20 1017.43 1017.65 1017.95 1018.24 1018.51 1018.89 1019.20 1019.46 1019.86 1020.19
1019.92 1020.19 1019.18 1019.10 1020.19 1021.50 1022.50 1023.18 1023.16 1023.15 1022.93 1022.79 1022.52 1022.26 1021.55 1021.82 1022.19 1022.51 1022.71 1022.65 1022.55 1021.91 1021.62 1021.33 1021.06 1020.87 1020.51 1019.98 1019.43 1019.15 1018.28 1017.34 1015.74 1015.51 1015.99 1016.37 1016.68 1017.01 1017.21 1017.59 1017.73 1018.08 1018.44 1018.72 1019.03 1019.40 1019.76 1020.12 1020.37
1020.55 1020.42 1020.52 1020.60 1021.20 1022.38 1023.36 1024.20 1023.95 1023.99 1023.35 1023.29 1023.88 1022.53 1021.53 1021.72 1022.01 1022.89 1022.83 1022.71 1022.65 1022.32 1021.93 1021.45 1021.20 1020.99 1020.76 1020.46 1019.90 1019.93 1018.67 1017.68 1017.18 1015.53 1015.72 1016.18 1016.57 1016.91 1017.32 1017.64 1018.00 1018.13 1018.55 1018.86 1019.37 1019.67 1020.05 1020.33 1020.63
1022.07 1021.64 1021.65 1021.92 1022.25 1023.07 1024.44 1024.84 1025.04 1024.61 1023.95 1024.61 1024.19 1022.81 1022.18 1022.06 1022.59 1023.16 1022.93 1022.81 1022.59 1022.45 1022.24 1021.77 1021.29 1021.07 1020.88 1020.73 1020.19 1019.48 1019.74 1018.55 1017.59 1015.89 1015.57 1015.79 1016.38 1016.87 1017.24 1017.80 1018.09 1018.24 1018.57 1018.99 1019.47 1019.96 1020.29 1020.63 1020.93
1023.21 1022.52 1022.47 1022.61 1023.31 1023.97 1025.18 1025.26 1025.11 1025.12 1024.79 1024.63 1024.35 1023.81 1023.34 1023.47 1023.67 1023.47 1022.87 1022.64 1022.57 1022.42 1022.46 1021.99 1021.41 1021.21 1021.05 1020.83 1020.47 1019.84 1018.83 1019.21 1018.62 1017.75 1015.53 1015.88 1015.90 1016.56 1017.19 1017.48 1018.19 1018.38 1018.76 1019.02 1019.63 1020.15 1020.60 1021.04 1021.32
1023.46 1023.04 1023.42 1023.87 1024.28 1024.86 1025.59 1025.64 1025.40 1025.34 1024.38 1024.03 1023.92 1023.85 1023.99 1023.90 1023.78 1023.44 1022.93 1022.67 1022.77 1022.78 1022.72 1022.45 1021.98 1021.40 1021.25 1020.92 1021.08 1019.85 1019.84 1019.54 1019.53 1018.80 1016.53 1015.54 1015.58 1015.82 1016.48 1017.11 1017.91 1018.44 1018.87 1019.22 1019.65 1020.22 1020.86 1021.27 1021.29
1024.44 1024.19 1024.59 1024.80 1025.18 1025.74 1025.79 1025.62 1025.49 1025.03 1024.11 1023.79 1023.98 1024.05 1024.09 1023.92 1023.70 1023.61 1023.66 1023.59 1023.59 1023.76 1023.48 1023.50 1022.76 1022.07 1021.31 1021.09 1021.34 1020.88 1020.36 1020.69 1019.51 1019.00 1018.70 1016.81 1015.19 1015.57 1016.22 1017.04 1017.70 1018.15 1018.97 1019.23 1019.74 1020.39 1020.65 1020.71 1021.04
1025.04 1025.43 1025.50 1025.56 1025.76 1026.00 1025.85 1025.70 1025.07 1024.75 1024.17 1024.12 1024.15 1024.19 1024.10 1024.12 1024.22 1024.21 1024.13 1024.32 1024.48 1024.41 1024.16 1023.90 1023.36 1022.30 1021.53 1021.12 1020.94 1020.27 1019.97 1020.02 1020.27 1019.17 1018.89 1017.53 1015.61 1015.44 1016.08 1016.46 1017.13 1017.43 1018.06 1018.51 1019.40 1019.99 1020.23 1020.75 1020.99
1025.44 1025.89 1025.99 1025.98 1025.88 1025.88 1025.89 1025.58 1025.12 1024.24 1024.14 1024.01 1024.20 1024.26 1024.32 1024.86 1024.84 1024.50 1024.83 1025.05 1025.00 1025.02 1024.67 1024.32 1023.56 1022.96 1022.45 1021.72 1021.10 1020.15 1020.06 1019.45 1019.78 1018.55 1017.82 1018.09 1017.56 1015.59 1015.96 1016.23 1016.83 1017.15 1017.49 1017.99 1018.68 1019.64 1020.07 1020.60 1020.94
1026.22 1026.21 1025.95 1025.95 1025.83 1025.74 1025.50 1024.91 1025.10 1023.53 1023.84 1024.06 1024.05 1023.99 1024.38 1025.33 1025.59 1025.33 1025.36 1025.37 1025.34 1025.29 1025.10 1024.59 1024.00 1023.17 1022.80 1022.36 1021.84 1020.64 1020.13 1020.37 1020.07 1020.19 1019.58 1018.03 1018.54 1017.77 1015.63 1016.12 1016.63 1016.95 1017.18 1017.73 1018.68 1019.33 1020.00 1020.39 1020.79
1026.36 1025.87 1025.48 1025.59 1025.78 1025.65 1025.25 1023.57 1023.43 1023.07 1023.47 1023.74 1023.91 1024.87 1025.47 1025.78 1026.03 1026.19 1026.23 1026.13 1025.91 1025.60 1025.34 1025.00 1024.29 1023.75 1022.97 1022.46 1022.03 1020.30 1020.09 1019.58 1019.69 1020.17 1019.56 1019.28 1018.16 1017.91 1017.08 1016.08 1016.39 1016.64 1017.03 1017.85 1018.82 1019.18 1019.90 1020.45 1020.82
1025.97 1025.73 1024.91 1025.07 1025.55 1025.60 1025.55 1022.68 1022.34 1022.81 1023.27 1023.64 1024.19 1025.45 1025.86 1026.12 1026.43 1026.52 1026.31 1026.44 1026.40 1025.89 1025.52 1025.16 1024.90 1024.22 1023.49 1022.89 1022.91 1021.20 1020.70 1020.03 1019.12 1020.13 1018.57 1018.55 1018.82 1018.72 1018.00 1017.63 1015.50 1016.30 1016.85 1017.57 1018.39 1019.01 1019.59 1020.24 1020.84
1025.78 1025.02 1024.93 1024.66 1025.29 1025.41 1025.34 1022.44 1022.09 1022.57 1022.95 1023.46 1024.38 1025.56 1026.16 1026.47 1026.68 1026.91 1026.61 1026.47 1026.60 1026.27 1025.80 1025.31 1025.03 1024.40 1023.90 1022.96 1022.32 1021.52 1021.54 1021.00 1019.82 1018.80 1017.99 1017.64 1018.51 1017.24 1018.13 1017.36 1014.99 1015.62 1016.52 1017.08 1017.79 1018.82 1019.37 1019.87 1020.59
1025.21 1025.17 1024.99 1024.83 1024.92 1025.09 1024.31 1021.97 1021.61 1021.78 1022.68 1023.45 1024.62 1025.67 1026.23 1026.64 1026.94 1027.18 1026.79 1026.53 1026.71 1026.52 1025.98 1025.49 1025.02 1024.63 1024.24 1023.06 1022.43 1021.65 1022.02 1020.67 1020.61 1019.14 1018.92 1018.02 1017.83 1018.27 1018.05 1017.16 1015.86 1014.92 1016.10 1016.77 1017.48 1018.03 1019.13 1019.69 1020.38
1025.97 1025.80 1025.31 1024.71 1025.28 1025.26 1023.44 1021.58 1020.81 1021.20 1022.18 1023.48 1024.46 1025.51 1026.12 1026.51 1026.96 1027.05 1026.84 1026.46 1026.42 1026.54 1026.41 1025.63 1024.93 1024.64 1024.23 1023.07 1021.99 1021.96 1020.77 1021.93 1020.34 1019.20 1019.33 1018.21 1017.01 1017.07 1016.61 1017.04 1016.73 1014.55 1015.05 1015.98 1016.72 1017.26 1018.52 1019.63 1020.62
1026.54 1026.18 1025.51 1025.05 1025.61 1025.50 1023.59 1021.49 1020.50 1021.77 1022.50 1023.49 1024.42 1025.23 1025.89 1026.36 1026.67 1026.76 1026.68 1026.42 1026.27 1026.31 1026.35 1026.14 1025.43 1024.83 1024.31 1023.74 1023.89 1022.68 1022.24 1020.99 1020.66 1019.92 1018.13 1017.46 1017.20 1016.88 1017.41 1017.17 1016.47 1015.43 1014.47 1015.27 1016.24 1016.58 1018.21 1019.69 1020.21
1026.67 1026.40 1026.15 1026.37 1025.78 1024.67 1023.99 1020.87 1020.22 1021.82 1022.86 1023.90 1024.73 1025.36 1025.81 1026.19 1026.60 1026.72 1026.68 1026.56 1026.26 1026.11 1026.10 1026.03 1025.71 1025.14 1024.38 1023.76 1023.16 1022.97 1021.80 1020.13 1019.72 1019.24 1019.79 1018.52 1018.05 1017.17 1016.14 1015.78 1015.90 1015.26 1014.73 1014.34 1015.38 1015.85 1016.89 1018.35 1019.40
1027.13 1026.97 1027.15 1026.95 1026.62 1025.27 1025.32 1022.19 1020.08 1020.68 1022.12 1023.28 1023.88 1024.72 1025.30 1025.93 1026.45 1026.79 1026.86 1026.67 1026.40 1026.09 1025.94 1025.69 1025.41 1025.01 1024.54 1023.97 1023.50 1022.72 1022.31 1021.23 1020.66 1020.94 1019.11 1017.96 1017.79 1016.88 1016.26 1015.94 1015.27 1015.20 1014.78 1013.94 1014.17 1015.30 1015.72 1017.10 1018.23
1027.70 1027.98 1027.95 1027.68 1027.05 1026.71 1025.32 1024.72 1019.60 1021.01 1021.29 1021.95 1022.98 1023.80 1024.86 1025.60 1026.19 1026.65 1027.01 1026.91 1026.73 1026.30 1025.91 1025.68 1025.19 1024.65 1024.31 1024.08 1023.50 1022.97 1022.20 1021.21 1020.29 1019.39 1018.51 1018.21 1018.20 1016.96 1015.82 1014.73 1014.96 1014.65 1013.72 1014.21 1013.38 1014.43 1014.81 1015.82 1017.13
1028.54 1028.62 1028.56 1028.13 1027.28 1026.31 1024.96 1024.86 1019.44 1019.96 1020.48 1021.50 1022.45 1023.30 1024.35 1025.26 1026.01 1026.61 1027.06 1026.99 1026.87 1026.52 1026.04 1025.76 1025.33 1024.73 1024.18 1023.59 1022.80 1022.05 1021.12 1020.20 1020.04 1019.37 1019.09 1018.30 1018.08 1017.59 1016.18 1014.67 1014.57 1014.11 1013.18 1013.51 1013.64 1013.18 1013.54 1014.62 1015.99
1028.73 1028.53 1027.80 1027.28 1026.53 1024.90 1025.10 1024.87 1020.05 1019.90 1020.90 1021.41 1022.15 1022.92 1024.02 1025.09 1025.99 1026.47 1026.75 1026.89 1026.90 1026.72 1026.17 1025.69 1025.48 1024.91 1024.37 1023.71 1023.07 1022.35 1021.76 1021.45 1021.11 1020.06 1019.30 1018.62 1017.98 1017.69 1016.02 1014.72 1014.83 1013.98 1012.75 1012.72 1013.69 1013.35 1012.90 1013.23 1014.79
1029.03 1028.87 1027.92 1026.79 1025.84 1024.42 1025.15 1022.80 1019.24 1020.15 1021.16 1021.83 1022.68 1023.27 1024.06 1024.80 1025.45 1026.07 1026.51 1026.83 1026.88 1026.63 1026.32 1025.87 1025.46 1025.01 1024.42 1023.89 1023.27 1022.76 1022.04 1021.40 1020.58 1019.75 1018.91 1018.55 1017.85 1017.00 1015.11 1015.15 1014.64 1013.93 1013.00 1011.93 1012.64 1013.06 1012.67 1013.17 1013.58
1029.90 1029.53 1028.82 1027.61 1027.48 1025.76 1022.34 1021.50 1019.69 1019.28 1020.65 1021.50 1022.17 1022.95 1023.37 1023.94 1024.55 1025.39 1026.13 1026.51 1026.73 1026.69 1026.32 1025.99 1025.63 1025.14 1024.63 1023.98 1023.27 1022.59 1021.90 1020.99 1020.30 1019.32 1018.85 1018.20 1017.34 1016.36 1015.04 1015.16 1014.87 1014.11 1012.75 1011.41 1011.34 1012.35 1012.80 1012.72 1013.54
1029.43 1029.17 1029.02 1028.22 1026.55 1023.99 1021.08 1020.32 1018.59 1018.69 1019.30 1020.45 1021.55 1021.99 1022.52 1023.25 1024.09 1024.83 1025.47 1025.95 1026.44 1026.54 1026.26 1026.01 1025.83 1025.37 1024.73 1024.17 1023.53 1022.71 1022.06 1021.28 1020.39 1019.59 1018.86 1017.87 1016.97 1016.26 1015.33 1014.91 1014.35 1013.10 1012.32 1011.34 1010.79 1011.15 1012.12 1012.50 1013.36
1029.57 1029.02 1028.82 1028.19 1026.48 1024.10 1021.16 1017.19 1016.74 1017.33 1018.12 1019.14 1020.03 1020.83 1021.64 1022.48 1023.42 1024.28 1024.96 1025.46 1025.99 1026.30 1026.16 1025.64 1025.59 1025.39 1024.95 1024.23 1023.62 1022.79 1021.97 1021.08 1020.10 1019.27 1018.29 1017.58 1016.81 1016.34 1015.14 1014.97 1013.84 1013.11 1012.07 1010.99 1010.82 1010.64 1011.10 1012.21 1012.67
1027.75 1027.27 1027.33 1026.67 1025.79 1024.58 1022.89 1016.44 1016.14 1017.03 1017.90 1018.75 1019.33 1020.08 1021.04 1022.09 1023.12 1024.08 1024.65 1025.11 1025.52 1025.82 1025.90 1025.48 1025.28 1025.23 1024.94 1024.48 1023.61 1022.81 1021.87 1021.02 1020.10 1019.18 1018.38 1017.71 1016.79 1016.01 1015.20 1014.66 1013.76 1012.93 1012.08 1010.12 1009.95 1010.39 1010.69 1011.09 1011.92
Thickness
5681 5683 5687 5689 5680 5681 5671 5662 5666 5668 5666 5660 5663 5665 5668 5675 5665 5662 5651 5652 5657 5667 5674 5682 5689 5696 5706 5715 5721 5724 5725 5726 5727 5732 5737 5738 5738 5738 5737 5738 5740 5740 5738 5736 5735 5732 5733 5731 5726
5677 5679 5681 5675 5676 5677 5670 5660 5657 5650 5648 5655 5659 5659 5663 5659 5648 5643 5644 5642 5648 5658 5664 5671 5679 5686 5695 5706 5713 5720 5721 5724 5725 5727 5731 5735 5736 5737 5736 5735 5737 5737 5737 5736 5732 5732 5730 5727 5724
5672 5674 5672 5668 5668 5674 5662 5648 5644 5646 5643 5644 5647 5646 5641 5637 5632 5631 5630 5632 5638 5647 5653 5658 5667 5675 5683 5692 5704 5713 5717 5721 5723 5723 5726 5729 5732 5734 5735 5734 5733 5735 5734 5733 5731 5730 5728 5724 5722
5669 5667 5661 5667 5665 5647 5649 5632 5632 5637 5639 5634 5628 5634 5631 5622 5620 5618 5620 5622 5627 5635 5643 5647 5652 5662 5672 5681 5689 5700 5711 5715 5721 5721 5723 5725 5728 5731 5731 5732 5730 5732 5732 5731 5730 5728 5725 5723 5720
5659 5656 5657 5656 5647 5639 5627 5618 5618 5623 5621 5623 5616 5627 5618 5619 5609 5607 5607 5610 5613 5618 5628 5637 5641 5649 5659 5669 5675 5686 5700 5714 5717 5719 5720 5722 5724 5726 5727 5728 5728 5728 5728 5729 5727 5725 5725 5722 5719
5652 5646 5654 5654 5639 5625 5616 5609 5609 5607 5607 5608 5610 5605 5610 5609 5602 5594 5589 5592 5596 5603 5612 5621 5630 5638 5647 5657 5667 5675 5688 5702 5713 5718 5717 5717 5719 5721 5723 5722 5724 5723 5723 5724 5724 5723 5722 5720 5719
5644 5645 5634 5634 5629 5614 5607 5596 5598 5593 5599 5599 5588 5597 5603 5597 5589 5578 5570 5569 5576 5583 5594 5605 5616 5625 5635 5644 5656 5661 5677 5690 5699 5714 5715 5714 5714 5716 5717 5718 5717 5719 5719 5719 5719 5719 5717 5717 5717
5628 5630 5623 5617 5617 5612 5593 5588 5585 5586 5589 5578 5579 5587 5583 5580 5569 5559 5550 5546 5554 5563 5574 5585 5599 5610 5621 5630 5644 5658 5660 5676 5687 5705 5711 5714 5711 5710 5712 5712 5712 5713 5714 5714 5714 5714 5713 5712 5713
5613 5622 5617 5616 5604 5600 5583 5580 5581 5576 5574 5571 5569 5565 5564 5556 5544 5536 5532 5526 5529 5542 5553 5566 5582 5594 5605 5616 5630 5645 5652 5661 5671 5683 5705 5706 5709 5707 5707 5709 5707 5708 5707 5710 5708 5708 5708 5708 5708
5613 5621 5611 5602 5596 5587 5575 5570 5571 5563 5572 5568 5557 5548 5541 5538 5530 5521 5511 5506 5508 5518 5531 5544 5560 5575 5589 5602 5611 5631 5639 5649 5652 5665 5690 5698 5704 5708 5706 5707 5705 5703 5702 5703 5704 5703 5701 5702 5704
5599 5604 5593 5588 5582 5572 5567 5564 5564 5561 5564 5563 5550 5538 5528 5522 5516 5504 5488 5481 5483 5490 5506 5518 5535 5552 5571 5587 5594 5609 5619 5627 5636 5651 5661 5679 5698 5702 5702 5701 5700 5701 5699 5700 5699 5698 5699 5701 5702
5590 5579 5577 5575 5571 5562 5560 5557 5558 5556 5555 5549 5543 5534 5523 5509 5494 5485 5473 5460 5459 5467 5480 5496 5512 5534 5551 5570 5583 5600 5612 5618 5620 5639 5649 5668 5687 5694 5695 5698 5700 5703 5702 5701 5696 5694 5697 5697 5698
5582 5572 5568 5565 5563 5558 5554 5546 5548 5550 5547 5541 5531 5521 5510 5494 5482 5473 5455 5444 5442 5449 5461 5472 5492 5510 5527 5547 5564 5586 5598 5613 5622 5630 5642 5653 5665 5685 5687 5689 5693 5698 5699 5699 5696 5693 5694 5693 5695
5565 5560 5562 5558 5558 5553 5549 5549 5535 5553 5540 5528 5525 5520 5507 5482 5465 5455 5441 5433 5432 5436 5446 5457 5472 5492 5508 5524 5544 5567 5585 5591 5603 5607 5619 5643 5646 5660 5679 5681 5685 5691 5694 5692 5690 5690 5689 5689 5690
5554 5559 5560 5555 5551 5547 5545 5558 5543 5550 5537 5525 5519 5497 5481 5470 5456 5441 5427 5419 5420 5425 5433 5444 5457 5473 5493 5507 5525 5554 5566 5585 5593 5594 5606 5619 5638 5648 5660 5673 5678 5683 5687 5683 5680 5684 5683 5684 5685
5554 5554 5574 5556 5544 5540 5533 5569 5557 5544 5529 5518 5509 5481 5468 5458 5446 5436 5427 5413 5409 5415 5423 5432 5441 5457 5475 5493 5503 5530 5547 5565 5582 5582 5602 5612 5619 5628 5639 5649 5674 5676 5677 5678 5675 5677 5679 5679 5680
5553 5577 5550 5557 5538 5533 5522 5548 5553 5540 5527 5513 5497 5473 5459 5448 5439 5427 5420 5410 5403 5405 5413 5424 5433 5445 5460 5478 5494 5512 5524 5541 5561 5579 5597 5607 5609 5627 5628 5645 5673 5672 5670 5672 5672 5670 5672 5674 5675
5571 5557 5547 5543 5541 5528 5529 5544 5549 5542 5519 5506 5488 5466 5453 5442 5431 5420 5415 5408 5397 5396 5403 5413 5425 5439 5448 5466 5479 5497 5505 5528 5540 5565 5577 5590 5597 5604 5617 5635 5652 5669 5665 5666 5665 5669 5667 5668 5668
5530 5527 5533 5542 5522 5511 5537 5543 5547 5540 5518 5497 5484 5463 5449 5438 5427 5417 5410 5404 5396 5390 5390 5401 5416 5428 5441 5458 5474 5482 5503 5505 5529 5547 5556 5576 5599 5599 5611 5621 5633 5658 5662 5662 5665 5668 5662 5660 5660
5512 5514 5527 5528 5505 5502 5521 5533 5543 5509 5501 5489 5477 5463 5446 5433 5424 5415 5408 5402 5396 5388 5384 5389 5400 5412 5429 5445 5445 5465 5478 5499 5511 5527 5551 5569 5581 5589 5595 5606 5621 5642 5657 5657 5655 5661 5655 5649 5653
5511 5507 5509 5495 5499 5511 5500 5552 5535 5498 5485 5472 5461 5451 5438 5427 5416 5410 5403 5397 5393 5388 5382 5382 5388 5398 5412 5431 5445 5450 5469 5493 5505 5519 5527 5549 5562 5579 5591 5602 5612 5626 5642 5653 5651 5657 5657 5652 5651
5500 5493 5483 5480 5479 5511 5480 5525 5549 5516 5489 5471 5465 5451 5439 5425 5412 5403 5397 5391 5388 5385 5382 5379 5382 5390 5400 5413 5428 5445 5454 5471 5484 5492 5515 5537 5549 5568 5581 5591 5606 5619 5628 5645 5652 5651 5657 5652 5648
5488 5469 5460 5454 5461 5442 5468 5463 5559 5481 5489 5482 5466 5454 5436 5423 5409 5398 5390 5384 5381 5378 5376 5375 5375 5383 5391 5400 5411 5427 5441 5458 5474 5491 5508 5520 5532 5555 5573 5592 5598 5606 5625 5628 5646 5647 5651 5651 5647
5458 5447 5431 5429 5439 5459 5459 5449 5559 5529 5495 5477 5465 5449 5433 5418 5404 5392 5382 5378 5373 5372 5370 5367 5367 5370 5377 5389 5405 5419 5436 5452 5464 5477 5490 5506 5518 5535 5559 5578 5588 5599 5615 5624 5633 5647 5651 5651 5647
5445 5456 5493 5489 5469 5514 5437 5433 5516 5502 5461 5466 5458 5446 5428 5406 5392 5383 5377 5372 5366 5362 5362 5361 5358 5358 5361 5369 5384 5401 5415 5428 5438 5456 5470 5488 5504 5519 5545 5565 5573 5589 5609 5619 5621 5628 5646 5651 5645
5441 5445 5484 5486 5507 5513 5416 5457 5520 5469 5438 5436 5428 5423 5413 5400 5389 5377 5369 5363 5358 5355 5352 5351 5349 5349 5350 5353 5362 5378 5396 5413 5429 5443 5458 5473 5490 5509 5536 5547 5559 5576 5595 5611 5615 5621 5631 5638 5643
5418 5431 5409 5423 5372 5406 5467 5449 5478 5471 5441 5426 5418 5412 5409 5401 5393 5375 5363 5356 5351 5346 5344 5341 5338 5338 5339 5340 5345 5356 5374 5396 5414 5431 5444 5459 5475 5498 5524 5533 5545 5560 5584 5604 5613 5613 5617 5630 5631
5414 5407 5413 5410 5421 5438 5471 5449 5494 5469 5453 5425 5411 5407 5403 5395 5383 5370 5359 5349 5342 5337 5334 5331 5327 5325 5326 5328 5330 5336 5349 5369 5392 5410 5426 5443 5461 5480 5503 5521 5535 5553 5571 5590 5605 5608 5609 5614 5619
5392 5408 5388 5389 5402 5430 5462 5527 5473 5471 5457 5439 5416 5406 5397 5387 5375 5363 5353 5342 5333 5326 5323 5322 5318 5313 5312 5316 5317 5320 5328 5346 5369 5391 5410 5427 5444 5462 5488 5503 5525 5539 5559 5581 5592 5602 5606 5606 5611
5397 5415 5401 5427 5408 5371 5357 5463 5476 5447 5430 5421 5417 5401 5387 5373 5360 5347 5340 5331 5324 5318 5312 5311 5308 5303 5300 5299 5305 5308 5313 5322 5342 5367 5388 5407 5427 5447 5468 5487 5509 5526 5543 5575 5586 5591 5598 5602 5605